TimeCDT,TemperatureF,Dew PointF,Humidity,Sea Level PressureIn,VisibilityMPH,Wind Direction,Wind SpeedMPH,Gust SpeedMPH,PrecipitationIn,Events,Conditions,WindDirDegrees,DateUTC
12:54 AM,46.9,44.1,90,29.69,10.0,WSW,4.6,-,N/A,,Partly Cloudy,240,2012-09-20 05:54:00
1:54 AM,46.9,44.1,90,29.70,10.0,WSW,6.9,-,N/A,,Clear,240,2012-09-20 06:54:00
2:54 AM,48.0,44.1,86,29.68,10.0,West,8.1,-,N/A,,Overcast,270,2012-09-20 07:54:00
3:54 AM,48.0,44.1,86,29.68,10.0,WSW,6.9,-,N/A,,Overcast,250,2012-09-20 08:54:00
4:08 AM,48.2,44.6,87,29.66,10.0,WSW,8.1,-,N/A,,Overcast,250,2012-09-20 09:08:00
4:39 AM,48.2,44.6,87,29.67,10.0,WSW,11.5,-,N/A,,Overcast,250,2012-09-20 09:39:00
5:16 AM,48.2,44.6,87,29.67,10.0,WSW,11.5,-,N/A,,Overcast,250,2012-09-20 10:16:00
5:54 AM,48.9,45.0,86,29.69,10.0,West,6.9,-,N/A,,Overcast,270,2012-09-20 10:54:00
6:54 AM,48.9,45.0,86,29.70,10.0,West,9.2,18.4,N/A,,Overcast,270,2012-09-20 11:54:00
8:50 AM,51.8,44.6,76,29.70,10.0,West,10.4,18.4,N/A,,Mostly Cloudy,280,2012-09-20 13:50:00
8:54 AM,52.0,45.0,77,29.71,10.0,West,13.8,18.4,N/A,,Mostly Cloudy,260,2012-09-20 13:54:00
9:22 AM,51.8,44.6,76,29.70,10.0,West,6.9,17.3,N/A,,Overcast,270,2012-09-20 14:22:00
9:54 AM,53.1,44.1,71,29.72,10.0,West,12.7,19.6,N/A,,Overcast,280,2012-09-20 14:54:00
10:54 AM,54.0,43.0,66,29.73,10.0,WNW,12.7,19.6,N/A,,Overcast,290,2012-09-20 15:54:00
11:54 AM,55.0,43.0,64,29.74,10.0,WNW,11.5,19.6,N/A,,Mostly Cloudy,290,2012-09-20 16:54:00
12:54 PM,55.9,42.1,60,29.75,10.0,WNW,10.4,-,N/A,,Overcast,300,2012-09-20 17:54:00
1:54 PM,55.0,45.0,69,29.76,10.0,West,11.5,18.4,0.00,,Overcast,270,2012-09-20 18:54:00
2:54 PM,55.0,46.0,72,29.77,10.0,West,9.2,-,0.01,,Mostly Cloudy,260,2012-09-20 19:54:00
3:54 PM,52.0,45.0,77,29.78,10.0,West,5.8,-,0.00,Rain,Light Rain,270,2012-09-20 20:54:00
4:54 PM,52.0,45.0,77,29.81,10.0,West,8.1,-,0.00,,Mostly Cloudy,260,2012-09-20 21:54:00
5:54 PM,52.0,46.0,80,29.83,10.0,WNW,11.5,18.4,0.00,Rain,Light Rain,300,2012-09-20 22:54:00
6:54 PM,48.0,43.0,83,29.85,8.0,WNW,6.9,-,0.00,Rain,Light Rain,290,2012-09-20 23:54:00
7:54 PM,48.0,43.0,83,29.85,10.0,West,3.5,-,0.00,,Overcast,280,2012-09-21 00:54:00
8:54 PM,46.0,43.0,89,29.84,10.0,West,4.6,-,N/A,,Partly Cloudy,260,2012-09-21 01:54:00
9:54 PM,44.1,41.0,89,29.84,10.0,Calm,Calm,-,N/A,,Clear,0,2012-09-21 02:54:00
10:54 PM,41.0,39.0,93,29.84,10.0,Calm,Calm,-,N/A,,Mostly Cloudy,0,2012-09-21 03:54:00
11:54 PM,39.0,37.0,93,29.83,10.0,Calm,Calm,-,N/A,,Clear,0,2012-09-21 04:54:00